Location: Glen Hill
(32.8948°N, 96.4744°W)
Time: 12:58:53
(UTC+00:00)

Daily predictions for brighter satellites

Satellite Brightness Start Highest point End
(mag) Time Altitude Azimuth Time Altitude Azimuth Time Altitude Azimuth
YAOGAN 6 4.4 12:05:35 15° WSW 12:05:35 15° WSW 12:06:34 10° SW
CZ-4B R/B 3.6 12:01:34 10° NNE 12:05:02 50° E 12:08:32 10° S
Cosmos 1408 Rocket 3.8 12:02:02 10° S 12:06:19 70° E 12:10:36 10° NNE
Cosmos 2142 Rocket 4.5 12:00:53 10° N 12:07:14 81° W 12:13:37 10° S
OAO 3 Rocket 4.1 12:06:12 18° W 12:09:18 38° SSW 12:13:53 10° SE
BREEZE-M DEB 2.8 12:11:17 16° WSW 12:13:15 57° NNW 12:19:13 10° NE
OE (NEXTSAT) 4.2 12:12:45 21° WNW 12:14:54 78° SW 12:18:19 10° SE
USA 215 3.9 12:08:47 10° ESE 12:15:04 52° NE 12:21:21 10° NNW
Cosmos 836 Rocket 4.4 12:10:49 10° NNW 12:16:04 81° WSW 12:21:15 10° SSE
Cosmos 2279 Rocket 3.9 12:11:10 10° N 12:17:20 70° W 12:23:28 10° S
Cosmos 1867 4.3 12:13:50 15° NW 12:17:32 33° WSW 12:22:19 10° S
Nadezhda 4 Rocket 4.1 12:14:01 10° S 12:20:08 82° E 12:26:21 10° N
Cosmos 1503 Rocket 4.4 12:17:47 10° SW 12:22:42 41° WNW 12:27:42 10° N
DMSP B5D2-2 4.4 12:19:53 10° SSE 12:25:04 72° ENE 12:30:16 10° N
Cosmos 1656 Rocket 4.5 12:22:13 10° WSW 12:26:42 26° WNW 12:31:13 10° N
Cosmos 1515 Rocket 3.8 12:25:08 10° N 12:29:29 73° E 12:33:48 10° SSE
SJ 16-02 1.4 12:26:02 10° SSW 12:30:24 88° ESE 12:34:48 10° NNE
CZ-2C R/B 3.3 12:26:25 10° SSW 12:31:29 37° W 12:36:30 10° NNW
Cosmos 1340 Rocket 3.0 12:29:10 10° S 12:33:04 75° E 12:37:01 10° NNE
Cosmos 1777 Rocket 3.9 12:28:48 10° SSW 12:33:59 77° WNW 12:39:13 10° NNE
BREEZE-M DEB (TANK) 3.7 12:19:31 10° NW 12:34:23 73° SW 12:38:38 10° SE
SL-27 R/B 4.2 12:31:39 10° N 12:34:54 33° ENE 12:38:06 10° SE
Cosmos 1500 Rocket 3.6 12:38:11 10° S 12:42:37 79° W 12:47:06 10° N
Cosmos 1939 Rocket 2.8 12:43:39 10° N 12:47:31 62° WNW 12:51:19 10° SSW
NOAA 6 4.1 12:43:12 10° NNE 12:48:20 86° ESE 12:53:27 10° SSW
Cosmos 773 Rocket 4.3 12:43:45 10° NNW 12:48:57 74° ENE 12:54:05 10° SSE
CORIOLIS 4.4 12:44:55 10° NNE 12:50:23 79° ESE 12:55:48 10° S
Cosmos 1763 Rocket 4.2 23:38:52 10° SSW 23:43:47 54° WNW 23:48:46 10° N
Aurora 2 Rocket 4.2 23:40:40 10° WSW 23:44:47 35° S 23:50:27 10° ESE
BREEZE-M DEB (TANK) 4.2 23:37:39 10° NW 23:45:35 48° NNE 23:48:36 10° ESE
Cosmos 841 Rocket 3.5 23:44:21 10° S 23:49:28 66° ESE 23:54:36 10° NNE
Cosmos 1697 Rocket 3.0 23:48:04 10° N 23:53:22 42° ENE 23:58:39 10° SE
Cosmos 1602 4.0 23:50:35 10° N 23:54:17 44° E 23:57:59 10° SSE
Cosmos 1782 2.8 23:50:22 10° S 23:54:18 60° E 23:58:14 10° NNE
Okean O Rocket 3.1 23:53:30 10° ESE 23:56:22 17° ENE 23:59:13 10° NNE
